{"data":{"norad_id":53633,"epoch":"2026-09-20T14:03:41.947488Z","epoch_age_seconds":74251,"freshness":"FRESH","line1":"1 53633U 22104AX  26263.58590217  .00000421  00000+0  23610-4 0  9997","line2":"2 53633  53.1583  61.1264 0001213  60.4865 299.6259 15.34395633225422","mean_motion":15.34395633,"eccentricity":0.0001213,"inclination_deg":53.1583,"raan_deg":61.1264,"arg_perigee_deg":60.4865,"mean_anomaly_deg":299.6259,"bstar":2.361e-5,"rev_number":22542,"period_min":93.848025178784,"perigee_km":461.88642438662,"apogee_km":463.54601537776,"semimajor_km":6840.8532198822,"source":"CELESTRAK","updated_at":"2026-09-21T09:00:32.945260Z"}}